Imperial, CA

9:41 PM PST on February 27, 2017 (GMT -0800)
Imperial County

Weather History for KIPL - July, 2013

Change the Weather History Date:

Saturday, July 13, 2013

  Actual Average Record
Temperature  
Mean Temperature 94 °F -  
Max Temperature 108 °F 106 °F 115 °F (2003)
Min Temperature 82 °F 76 °F 68 °F (1952)
Cooling Degree Days 30    
Growing Degree Days 44 (Base 50)    
Moisture  
Dew Point 62 °F    
Average Humidity 36    
Maximum Humidity 63    
Minimum Humidity 19    
Precipitation  
Precipitation 0.00 in - - ()
Sea Level Pressure  
Sea Level Pressure 29.75 in    
Wind  
Wind Speed 3 mph (South)    
Max Wind Speed 9 mph    
Max Gust Speed -    
Visibility 10 miles    
Events      
Averages and records for this station are not official NWS values.
T = Trace of Precipitation, MM = Missing Value Source: NWS Daily Summary

Daily Weather History Graph

Daily Weather History Graph

Search for Another Location

Airport or City:

Trip Planner

Search our weather history database for the weather conditions in past years. The results will help you decide how hot, cold, wet, or windy it might be!

Date:

Astronomy

Jul. 13, 2013 Rise Set
Actual Time 5:44 AM PDT 7:51 PM PDT
Civil Twilight 5:15 AM PDT 8:20 PM PDT
Nautical Twilight 4:41 AM PDT 8:54 PM PDT
Astronomical Twilight 4:04 AM PDT 9:30 PM PDT
Moon 10:44 AM PDT (7/13) 10:56 PM PDT (7/13)
Length of Visible Light 15h 04m
Length of Day
14h 07m
Waxing Crescent, 26% of the Moon is Illuminated
Jul 13
Waxing Crescent
Jul 15
First Quarter
Jul 22
Full
Jul 29
Last Quarter
Aug 6
New

Hourly Weather History & Observations

Time (PDT) Temp. Heat Index Dew Point Humidity Pressure Visibility Wind Dir Wind Speed Gust Speed Precip Events Conditions
12:53 AM 87.1 °F 86.7 °F 60.1 °F 40% 29.75 in 10.0 mi Calm Calm - N/A   Clear
1:53 AM 87.1 °F 86.1 °F 57.9 °F 37% 29.75 in 10.0 mi West 3.5 mph - N/A   Clear
2:53 AM 84.9 °F 85.4 °F 62.1 °F 46% 29.75 in 10.0 mi West 5.8 mph - N/A   Clear
3:53 AM 86.0 °F 88.2 °F 66.0 °F 51% 29.76 in 10.0 mi ESE 4.6 mph - N/A   Clear
4:53 AM 84.0 °F 87.8 °F 69.1 °F 61% 29.76 in 10.0 mi SE 5.8 mph - N/A   Clear
5:53 AM 82.9 °F 86.5 °F 69.1 °F 63% 29.78 in 10.0 mi SSE 4.6 mph - N/A   Clear
6:53 AM 84.0 °F 88.4 °F 70.0 °F 63% 29.80 in 10.0 mi South 5.8 mph - N/A   Clear
7:53 AM 87.1 °F 92.0 °F 70.0 °F 57% 29.82 in 10.0 mi South 4.6 mph - N/A   Clear
8:53 AM 91.0 °F 93.0 °F 64.9 °F 42% 29.82 in 10.0 mi Calm Calm - N/A   Clear
9:53 AM 93.9 °F 96.1 °F 64.9 °F 38% 29.83 in 10.0 mi SW 4.6 mph - N/A   Clear
10:53 AM 97.0 °F 97.8 °F 62.1 °F 31% 29.82 in 10.0 mi West 3.5 mph - N/A   Clear
11:53 AM 100.0 °F 100.2 °F 59.0 °F 26% 29.81 in 10.0 mi Calm Calm - N/A   Clear
12:53 PM 102.0 °F 102.7 °F 60.1 °F 25% 29.78 in 10.0 mi Variable 3.5 mph - N/A   Clear
1:53 PM 102.9 °F 104.2 °F 61.0 °F 25% 29.76 in 10.0 mi Calm Calm - N/A   Partly Cloudy
2:53 PM 105.1 °F 106.4 °F 60.1 °F 23% 29.74 in 10.0 mi East 9.2 mph - N/A   Partly Cloudy
3:53 PM 105.1 °F 105.0 °F 57.9 °F 21% 29.71 in 10.0 mi Calm Calm - N/A   Scattered Clouds
4:53 PM 107.1 °F 106.7 °F 57.0 °F 19% 29.69 in 10.0 mi NE 4.6 mph - N/A   Mostly Cloudy
5:53 PM 106.0 °F 105.8 °F 57.0 °F 20% 29.68 in 10.0 mi SSW 6.9 mph - N/A   Mostly Cloudy
6:53 PM 105.1 °F 104.4 °F 55.9 °F 20% 29.68 in 10.0 mi SW 5.8 mph - N/A   Partly Cloudy
7:53 PM 102.9 °F 103.0 °F 57.9 °F 23% 29.69 in 10.0 mi SSW 3.5 mph - N/A   Partly Cloudy
8:53 PM 100.9 °F 102.7 °F 62.1 °F 28% 29.70 in 10.0 mi South 8.1 mph - N/A   Partly Cloudy
9:53 PM 99.0 °F 99.5 °F 61.0 °F 28% 29.73 in 10.0 mi South 4.6 mph - N/A   Clear
10:53 PM 93.9 °F 95.6 °F 64.0 °F 37% 29.74 in 10.0 mi Calm Calm - N/A   Clear
11:53 PM 93.9 °F 92.2 °F 55.9 °F 28% 29.74 in 10.0 mi SW 5.8 mph - N/A   Clear